When you browse on this site, cookies collect data to enhance your experience and personalize the content and advertising you see.
Visit our Privacy Policy to learn more. By continuing to use the site, you agree to this use of cookies and data.
  • In Hungary
  • List of Countries
  • For 7 days
  • Water Temperature
  • Weather Map
  • News
  • Weather Widgets
  • user-avatar
    Login

    Hourly Weather Lafia

    Today, 12 November, Tuesday

    Time Temperature Precipitation Wind Pressure Humidity
    00:00 +28°C° 0 mm 1 mps 739 mmHg 66%
    01:00 +28°C° 0 mm 1 mps 739 mmHg 68%
    02:00 +27°C° 0 mm 1 mps 739 mmHg 71%
    03:00 +27°C° 0 mm 1 mps 739 mmHg 73%
    04:00 +27°C° 0 mm 1 mps 739 mmHg 76%
    05:00 +26°C° 0 mm 1 mps 739 mmHg 79%
    06:00 +26°C° 0 mm 1 mps 739 mmHg 81%
    07:00 +26°C° 0 mm 1 mps 740 mmHg 84%
    08:00 +28°C° 0 mm 1 mps 740 mmHg 77%
    09:00 +30°C° 0 mm 2 mps 740 mmHg 70%
    10:00 +31°C° 0 mm 2 mps 740 mmHg 64%
    11:00 +34°C° 0 mm 2 mps 740 mmHg 58%
    12:00 +35°C° 0 mm 2 mps 739 mmHg 53%
    13:00 +36°C° 0 mm 2 mps 738 mmHg 47%
    14:00 +36°C° 0 mm 2 mps 738 mmHg 47%
    15:00 +36°C° 0 mm 2 mps 737 mmHg 47%
    16:00 +36°C° 0 mm 2 mps 737 mmHg 47%
    17:00 +34°C° 0.1 mm 2 mps 737 mmHg 53%
    18:00 +32°C° 0.1 mm 2 mps 738 mmHg 59%
    19:00 +30°C° 0.1 mm 2 mps 739 mmHg 65%
    20:00 +30°C° 0.2 mm 2 mps 739 mmHg 70%
    21:00 +29°C° 0.2 mm 2 mps 740 mmHg 76%
    22:00 +28°C° 0.2 mm 2 mps 740 mmHg 81%
    23:00 +28°C° 0.1 mm 2 mps 740 mmHg 83%

    Tomorrow, 13 November, Wednesday

    Time Temperature Precipitation Wind Pressure Humidity
    00:00 +27°C° 0.1 mm 1 mps 740 mmHg 86%
    01:00 +27°C° 0.1 mm 1 mps 740 mmHg 88%
    02:00 +27°C° 0 mm 1 mps 740 mmHg 89%
    03:00 +26°C° 0 mm 1 mps 739 mmHg 90%
    04:00 +26°C° 0 mm 1 mps 739 mmHg 91%
    05:00 +26°C° 0 mm 1 mps 740 mmHg 91%
    06:00 +26°C° 0 mm 1 mps 740 mmHg 90%
    07:00 +24°C° 0 mm 0 mps 740 mmHg 90%
    08:00 +28°C° 0 mm 1 mps 740 mmHg 82%
    09:00 +30°C° 0 mm 1 mps 741 mmHg 73%
    10:00 +31°C° 0 mm 1 mps 741 mmHg 65%
    11:00 +33°C° 0 mm 1 mps 740 mmHg 59%
    12:00 +35°C° 0 mm 2 mps 739 mmHg 53%
    13:00 +37°C° 0 mm 2 mps 739 mmHg 47%
    14:00 +37°C° 0 mm 2 mps 738 mmHg 46%
    15:00 +37°C° 0 mm 2 mps 738 mmHg 45%
    16:00 +37°C° 0 mm 2 mps 737 mmHg 44%
    17:00 +34°C° 0 mm 1 mps 738 mmHg 50%
    18:00 +33°C° 0 mm 1 mps 738 mmHg 56%
    19:00 +31°C° 0 mm 1 mps 738 mmHg 62%
    20:00 +30°C° 0 mm 1 mps 739 mmHg 64%
    21:00 +30°C° 0 mm 1 mps 739 mmHg 66%
    22:00 +30°C° 0 mm 1 mps 740 mmHg 67%
    23:00 +29°C° 0.3 mm 1 mps 740 mmHg 70%

    Day after tomorrow, 14 November, Thursday

    Time Temperature Precipitation Wind Pressure Humidity
    00:00 +29°C° 0.3 mm 1 mps 740 mmHg 72%
    01:00 +28°C° 0.3 mm 1 mps 739 mmHg 75%
    02:00 +28°C° 0.6 mm 1 mps 739 mmHg 78%
    03:00 +27°C° 0.6 mm 1 mps 739 mmHg 81%
    04:00 +27°C° 0.6 mm 1 mps 739 mmHg 85%
    05:00 +27°C° 0 mm 1 mps 740 mmHg 85%
    06:00 +27°C° 0 mm 1 mps 740 mmHg 85%
    07:00 +25°C° 0 mm 0 mps 741 mmHg 85%
    08:00 +29°C° 0 mm 1 mps 741 mmHg 79%
    09:00 +30°C° 0 mm 1 mps 741 mmHg 72%
    10:00 +32°C° 0 mm 1 mps 741 mmHg 65%
    11:00 +33°C° 0 mm 1 mps 740 mmHg 58%
    12:00 +35°C° 0 mm 1 mps 740 mmHg 51%
    13:00 +36°C° 0 mm 1 mps 739 mmHg 44%
    14:00 +36°C° 0 mm 1 mps 738 mmHg 43%
    15:00 +36°C° 0 mm 1 mps 738 mmHg 42%
    16:00 +36°C° 0 mm 1 mps 737 mmHg 41%
    17:00 +34°C° 0 mm 1 mps 738 mmHg 48%
    18:00 +32°C° 0 mm 1 mps 738 mmHg 54%
    19:00 +31°C° 0 mm 1 mps 738 mmHg 60%
    20:00 +30°C° 0 mm 1 mps 739 mmHg 63%
    21:00 +30°C° 0 mm 1 mps 739 mmHg 65%
    22:00 +29°C° 0 mm 1 mps 740 mmHg 67%
    23:00 +29°C° 0 mm 1 mps 740 mmHg 70%

    15 November, Friday

    Time Temperature Precipitation Wind Pressure Humidity
    00:00 +28°C° 0 mm 1 mps 740 mmHg 72%
    01:00 +26°C° 0 mm 0 mps 739 mmHg 74%
    02:00 +28°C° 0 mm 1 mps 739 mmHg 75%
    03:00 +27°C° 0 mm 1 mps 739 mmHg 76%
    04:00 +27°C° 0 mm 1 mps 739 mmHg 78%
    05:00 +27°C° 0 mm 1 mps 739 mmHg 80%
    06:00 +27°C° 0 mm 1 mps 739 mmHg 82%
    07:00 +27°C° 0 mm 1 mps 740 mmHg 84%
    08:00 +29°C° 0 mm 1 mps 740 mmHg 77%
    09:00 +30°C° 0 mm 1 mps 740 mmHg 71%
    10:00 +32°C° 0 mm 1 mps 741 mmHg 64%
    11:00 +33°C° 0 mm 1 mps 740 mmHg 59%
    12:00 +34°C° 0 mm 1 mps 739 mmHg 54%
    13:00 +36°C° 0 mm 1 mps 738 mmHg 48%
    14:00 +36°C° 0 mm 1 mps 738 mmHg 47%
    15:00 +36°C° 0 mm 1 mps 737 mmHg 46%
    16:00 +36°C° 0 mm 1 mps 737 mmHg 44%
    17:00 +35°C° 0 mm 2 mps 737 mmHg 52%
    18:00 +32°C° 0 mm 2 mps 738 mmHg 60%
    19:00 +30°C° 0 mm 2 mps 738 mmHg 68%
    20:00 +30°C° 0 mm 2 mps 738 mmHg 72%
    21:00 +29°C° 0 mm 1 mps 739 mmHg 76%
    22:00 +29°C° 0 mm 1 mps 739 mmHg 80%
    23:00 +28°C° 0 mm 1 mps 739 mmHg 82%

    16 November, Saturday

    Time Temperature Precipitation Wind Pressure Humidity
    00:00 +28°C° 0 mm 1 mps 739 mmHg 84%
    01:00 +27°C° 0 mm 1 mps 739 mmHg 86%
    02:00 +27°C° 0 mm 1 mps 739 mmHg 88%
    03:00 +27°C° 0 mm 1 mps 739 mmHg 89%
    04:00 +27°C° 0 mm 1 mps 739 mmHg 90%
    05:00 +27°C° 0 mm 1 mps 739 mmHg 90%
    06:00 +27°C° 0 mm 1 mps 739 mmHg 89%
    07:00 +27°C° 0 mm 1 mps 740 mmHg 89%
    08:00 +29°C° 0 mm 1 mps 740 mmHg 81%
    09:00 +30°C° 0 mm 1 mps 740 mmHg 73%
    10:00 +32°C° 0 mm 1 mps 741 mmHg 65%
    11:00 +33°C° 0 mm 1 mps 740 mmHg 59%
    12:00 +35°C° 0 mm 1 mps 739 mmHg 53%
    13:00 +36°C° 0 mm 1 mps 738 mmHg 46%
    14:00 +36°C° 0 mm 1 mps 738 mmHg 45%
    15:00 +36°C° 0 mm 1 mps 737 mmHg 43%
    16:00 +37°C° 0 mm 2 mps 737 mmHg 42%
    17:00 +35°C° 0 mm 2 mps 737 mmHg 49%
    18:00 +32°C° 0 mm 2 mps 737 mmHg 55%
    19:00 +30°C° 0 mm 2 mps 738 mmHg 62%
    20:00 +30°C° 0 mm 1 mps 738 mmHg 63%
    21:00 +29°C° 0 mm 1 mps 739 mmHg 64%
    22:00 +27°C° 0 mm 0 mps 739 mmHg 65%
    23:00 +26°C° 0 mm 0 mps 739 mmHg 68%

    17 November, Sunday

    Time Temperature Precipitation Wind Pressure Humidity
    00:00 +28°C° 0 mm 1 mps 739 mmHg 70%
    01:00 +28°C° 0 mm 1 mps 739 mmHg 73%
    02:00 +27°C° 0 mm 1 mps 739 mmHg 76%
    03:00 +27°C° 0 mm 1 mps 739 mmHg 78%
    04:00 +27°C° 0 mm 1 mps 738 mmHg 81%
    05:00 +27°C° 0 mm 1 mps 739 mmHg 82%
    06:00 +27°C° 0 mm 1 mps 739 mmHg 83%
    07:00 +27°C° 0 mm 1 mps 740 mmHg 83%
    08:00 +28°C° 0 mm 1 mps 740 mmHg 76%
    09:00 +30°C° 0 mm 1 mps 740 mmHg 69%
    10:00 +32°C° 0 mm 2 mps 741 mmHg 62%
    11:00 +34°C° 0 mm 1 mps 740 mmHg 55%
    12:00 +36°C° 0 mm 1 mps 739 mmHg 48%
    13:00 +37°C° 0 mm 1 mps 739 mmHg 40%
    14:00 +37°C° 0 mm 1 mps 738 mmHg 38%
    15:00 +37°C° 0 mm 1 mps 738 mmHg 36%
    16:00 +37°C° 0 mm 1 mps 737 mmHg 33%
    17:00 +35°C° 0 mm 1 mps 737 mmHg 38%
    18:00 +33°C° 0 mm 1 mps 738 mmHg 42%
    19:00 +31°C° 0 mm 1 mps 738 mmHg 47%
    20:00 +31°C° 0 mm 1 mps 739 mmHg 50%
    21:00 +30°C° 0 mm 1 mps 739 mmHg 54%
    22:00 +29°C° 0 mm 1 mps 740 mmHg 57%
    23:00 +29°C° 0 mm 1 mps 740 mmHg 62%
    Show more